| time (UTC) | temp C | wind direction | speed KPH | gust KPH | rain 1hr cm | rain 24hr cm | rain mn cm | humidity % | barometer mb |
| 20260509185507 | 22 | 274 | 24.1 | 35.4 | 0.00 | 0.00 | 0.00 | 50 | 1006.5 |
| 20260509185014 | 22 | 280 | 25.7 | 38.6 | 0.00 | 0.00 | 0.00 | 48 | 1006.5 |
| 20260509184531 | 23 | 272 | 29.0 | 38.6 | 0.00 | 0.00 | 0.00 | 49 | 1006.3 |
| 20260509184008 | 22 | 283 | 16.1 | 40.2 | 0.00 | 0.00 | 0.00 | 47 | 1006.3 |
| 20260509183511 | 22 | 281 | 27.4 | 40.2 | 0.00 | 0.00 | 0.00 | 47 | 1006.2 |
| 20260509183026 | 22 | 233 | 24.1 | 35.4 | 0.00 | 0.00 | 0.00 | 54 | 1006.2 |
| 20260509182504 | 22 | 276 | 24.1 | 38.6 | 0.00 | 0.00 | 0.00 | 46 | 1006.2 |
| 20260509182010 | 22 | 282 | 24.1 | 38.6 | 0.00 | 0.00 | 0.00 | 52 | 1006.1 |
| 20260509181007 | 22 | 269 | 25.7 | 37.0 | 0.00 | 0.00 | 0.00 | 52 | 1006.2 |
| 20260509180508 | 22 | 249 | 22.5 | 37.0 | 0.00 | 0.00 | 0.00 | 51 | 1006.2 |
| 20260509175508 | 22 | 257 | 25.7 | 33.8 | 0.00 | 0.00 | 0.00 | 53 | 1006.2 |
| 20260509175008 | 21 | 250 | 25.7 | 33.8 | 0.00 | 0.00 | 0.00 | 56 | 1006.2 |
| 20260509174008 | 21 | 253 | 24.1 | 32.2 | 0.00 | 0.08 | 0.00 | 57 | 1006.1 |
| 20260509173509 | 21 | 250 | 19.3 | 35.4 | 0.00 | 0.15 | 0.00 | 60 | 1006.1 |
| 20260509173024 | 21 | 267 | 27.4 | 35.4 | 0.00 | 0.18 | 0.00 | 58 | 1005.9 |
| 20260509172512 | 21 | 234 | 22.5 | 35.4 | 0.00 | 0.20 | 0.00 | 61 | 1005.9 |
| 20260509172013 | 21 | 253 | 22.5 | 33.8 | 0.00 | 0.20 | 0.00 | 61 | 1006.0 |
| 20260509171003 | 20 | 257 | 24.1 | 35.4 | 0.00 | 0.23 | 0.00 | 63 | 1006.0 |
| 20260509170504 | 20 | 268 | 24.1 | 35.4 | 0.00 | 0.23 | 0.00 | 63 | 1006.1 |
| 20260509165508 | 20 | 262 | 29.0 | 37.0 | 0.00 | 0.25 | 0.00 | 67 | 1006.2 |
| 20260509165005 | 20 | 262 | 25.7 | 37.0 | 0.00 | 0.25 | 0.00 | 67 | 1006.1 |
| 20260509164006 | 19 | 267 | 27.4 | 35.4 | 0.00 | 0.25 | 0.00 | 68 | 1006.0 |
| 20260509163513 | 19 | 259 | 27.4 | 35.4 | 0.00 | 0.25 | 0.00 | 69 | 1006.1 |
| 20260509162008 | 18 | 261 | 25.7 | 37.0 | 0.00 | 0.25 | 0.00 | 73 | 1005.9 |
| 20260509161524 | 18 | 252 | 24.1 | 37.0 | 0.00 | 0.25 | 0.00 | 73 | 1005.9 |
| 20260509161014 | 18 | 274 | 25.7 | 33.8 | 0.00 | 0.25 | 0.00 | 74 | 1005.8 |
| 20260509160510 | 18 | 255 | 27.4 | 33.8 | 0.00 | 0.25 | 0.00 | 75 | 1005.8 |
| 20260509160012 | 18 | 248 | 20.9 | 35.4 | 0.00 | 0.25 | 0.00 | 76 | 1005.9 |
| 20260509155504 | 18 | 250 | 29.0 | 35.4 | 0.00 | 0.25 | 0.00 | 77 | 1006.0 |
| 20260509155006 | 18 | 250 | 24.1 | 37.0 | 0.00 | 0.25 | 0.00 | 77 | 1005.9 |
| 20260509154522 | 18 | 253 | 24.1 | 37.0 | 0.00 | 0.25 | 0.00 | 76 | 1005.9 |
| 20260509154009 | 17 | 272 | 20.9 | 33.8 | 0.00 | 0.25 | 0.00 | 82 | 1006.0 |
| 20260509153506 | 17 | 255 | 24.1 | 33.8 | 0.00 | 0.25 | 0.00 | 79 | 1006.1 |
| 20260509153023 | 17 | 269 | 24.1 | 32.2 | 0.00 | 0.25 | 0.00 | 80 | 1006.0 |
| 20260509152512 | 17 | 248 | 25.7 | 32.2 | 0.00 | 0.25 | 0.00 | 79 | 1005.8 |
| 20260509152008 | 17 | 254 | 25.7 | 32.2 | 0.00 | 0.25 | 0.00 | 79 | 1005.7 |
| 20260509151006 | 17 | 243 | 20.9 | 27.4 | 0.00 | 0.25 | 0.00 | 83 | 1005.8 |
| 20260509150509 | 16 | 234 | 20.9 | 25.7 | 0.00 | 0.25 | 0.00 | 81 | 1006.0 |
| 20260509150026 | 16 | 267 | 20.9 | 30.6 | 0.00 | 0.25 | 0.00 | 82 | 1006.0 |
| 20260509145510 | 16 | 250 | 24.1 | 30.6 | 0.00 | 0.25 | 0.00 | 82 | 1006.2 |
| 20260509145011 | 16 | 256 | 20.9 | 32.2 | 0.00 | 0.25 | 0.00 | 86 | 1006.4 |
| 20260509144519 | 15 | 249 | 24.1 | 32.2 | 0.00 | 0.25 | 0.00 | 84 | 1006.4 |
| 20260509144003 | 15 | 248 | 22.5 | 29.0 | 0.00 | 0.25 | 0.00 | 86 | 1006.3 |
| 20260509143508 | 15 | 231 | 22.5 | 32.2 | 0.00 | 0.25 | 0.00 | 86 | 1006.4 |
| 20260509143006 | 15 | 245 | 24.1 | 35.4 | 0.00 | 0.25 | 0.00 | 87 | 1006.4 |
| 20260509142503 | 15 | 245 | 22.5 | 35.4 | 0.00 | 0.25 | 0.00 | 89 | 1006.3 |
| 20260509142001 | 15 | 232 | 24.1 | 33.8 | 0.00 | 0.25 | 0.00 | 90 | 1006.2 |
| 20260509141508 | 14 | 240 | 22.5 | 32.2 | 0.00 | 0.25 | 0.00 | 90 | 1006.1 |
| 20260509141005 | 14 | 237 | 25.7 | 32.2 | 0.00 | 0.25 | 0.00 | 90 | 1006.0 |
| 20260509140503 | 14 | 247 | 27.4 | 32.2 | 0.00 | 0.25 | 0.00 | 91 | 1005.9 |
| 20260509140009 | 13 | 257 | 24.1 | 29.0 | 0.00 | 0.25 | 0.00 | 93 | 1006.0 |
| 20260509135507 | 13 | 255 | 25.7 | 29.0 | 0.00 | 0.25 | 0.00 | 93 | 1005.9 |
| 20260509135004 | 13 | 253 | 20.9 | 27.4 | 0.00 | 0.25 | 0.00 | 94 | 1006.0 |
| 20260509134510 | 13 | 250 | 20.9 | 32.2 | 0.00 | 0.25 | 0.00 | 95 | 1005.9 |
| 20260509134004 | 12 | 257 | 25.7 | 32.2 | 0.00 | 0.25 | 0.00 | 95 | 1005.9 |
| 20260509133512 | 12 | 241 | 25.7 | 32.2 | 0.00 | 0.25 | 0.00 | 95 | 1006.0 |
| 20260509133017 | 12 | 241 | 25.7 | 32.2 | 0.00 | 0.25 | 0.00 | 96 | 1005.9 |
| 20260509132509 | 12 | 234 | 24.1 | 30.6 | 0.00 | 0.25 | 0.00 | 96 | 1006.0 |
| 20260509132007 | 12 | 245 | 27.4 | 30.6 | 0.00 | 0.25 | 0.00 | 97 | 1005.9 |
| 20260509131504 | 12 | 226 | 22.5 | 30.6 | 0.00 | 0.25 | 0.00 | 97 | 1006.0 |
| 20260509131002 | 12 | 250 | 22.5 | 30.6 | 0.00 | 0.25 | 0.00 | 98 | 1005.9 |
| 20260509130504 | 11 | 238 | 24.1 | 29.0 | 0.00 | 0.25 | 0.00 | 98 | 1005.9 |
| 20260509130006 | 11 | 248 | 22.5 | 29.0 | 0.00 | 0.25 | 0.00 | 98 | 1006.0 |
| 20260509125504 | 11 | 247 | 22.5 | 30.6 | 0.00 | 0.25 | 0.00 | 98 | 1006.0 |
| 20260509125007 | 11 | 238 | 24.1 | 30.6 | 0.00 | 0.25 | 0.00 | 98 | 1005.8 |
| 20260509124512 | 11 | 236 | 24.1 | 30.6 | 0.00 | 0.25 | 0.00 | 98 | 1005.8 |
| 20260509124004 | 11 | 240 | 24.1 | 30.6 | 0.00 | 0.25 | 0.00 | 98 | 1005.8 |
| 20260509123504 | 11 | 229 | 24.1 | 30.6 | 0.00 | 0.25 | 0.00 | 98 | 1005.8 |
| 20260509123016 | 11 | 230 | 24.1 | 29.0 | 0.00 | 0.25 | 0.00 | 98 | 1005.8 |
| 20260509122505 | 11 | 248 | 22.5 | 27.4 | 0.00 | 0.25 | 0.00 | 98 | 1005.7 |
| 20260509122004 | 11 | 232 | 22.5 | 25.7 | 0.00 | 0.25 | 0.00 | 98 | 1005.7 |
| 20260509121518 | 11 | 241 | 20.9 | 25.7 | 0.00 | 0.25 | 0.00 | 98 | 1005.7 |
| 20260509121011 | 11 | 222 | 19.3 | 24.1 | 0.00 | 0.25 | 0.00 | 98 | 1005.7 |
| 20260509120507 | 11 | 235 | 19.3 | 24.1 | 0.00 | 0.25 | 0.00 | 98 | 1005.7 |
| 20260509120004 | 11 | 236 | 19.3 | 24.1 | 0.00 | 0.25 | 0.00 | 98 | 1005.7 |
| 20260509115504 | 11 | 239 | 19.3 | 24.1 | 0.00 | 0.25 | 0.00 | 98 | 1005.7 |
| 20260509115004 | 11 | 236 | 17.7 | 24.1 | 0.00 | 0.25 | 0.00 | 98 | 1005.7 |
| 20260509114508 | 11 | 225 | 19.3 | 22.5 | 0.00 | 0.25 | 0.00 | 98 | 1005.7 |
| 20260509114004 | 11 | 226 | 17.7 | 27.4 | 0.00 | 0.25 | 0.00 | 98 | 1005.7 |
| 20260509113504 | 11 | 228 | 19.3 | 27.4 | 0.00 | 0.25 | 0.00 | 98 | 1005.6 |
| 20260509113012 | 11 | 248 | 19.3 | 25.7 | 0.00 | 0.25 | 0.00 | 98 | 1005.6 |
| 20260509112503 | 11 | 244 | 17.7 | 27.4 | 0.00 | 0.25 | 0.00 | 98 | 1005.6 |
| 20260509112004 | 11 | 231 | 20.9 | 27.4 | 0.00 | 0.25 | 0.00 | 98 | 1005.6 |
| 20260509111520 | 11 | 248 | 22.5 | 27.4 | 0.00 | 0.25 | 0.00 | 98 | 1005.5 |
| 20260509111006 | 11 | 233 | 19.3 | 25.7 | 0.00 | 0.25 | 0.00 | 98 | 1005.7 |
| 20260509110504 | 11 | 244 | 17.7 | 22.5 | 0.00 | 0.25 | 0.00 | 98 | 1005.7 |
| 20260509110024 | 11 | 242 | 16.1 | 22.5 | 0.00 | 0.25 | 0.00 | 98 | 1005.7 |
| 20260509105508 | 11 | 234 | 17.7 | 22.5 | 0.00 | 0.25 | 0.00 | 98 | 1005.7 |
| 20260509105009 | 11 | 239 | 16.1 | 22.5 | 0.00 | 0.25 | 0.00 | 98 | 1005.8 |
| 20260509104505 | 11 | 248 | 17.7 | 22.5 | 0.00 | 0.25 | 0.00 | 98 | 1005.8 |
| 20260509104002 | 11 | 233 | 17.7 | 20.9 | 0.00 | 0.25 | 0.00 | 98 | 1005.9 |
| 20260509103502 | 11 | 251 | 16.1 | 20.9 | 0.00 | 0.25 | 0.00 | 98 | 1005.9 |
| 20260509103016 | 11 | 238 | 16.1 | 20.9 | 0.00 | 0.25 | 0.00 | 98 | 1006.0 |
| 20260509102505 | 11 | 254 | 12.9 | 19.3 | 0.00 | 0.25 | 0.00 | 98 | 1006.0 |
| 20260509102004 | 11 | 258 | 14.5 | 17.7 | 0.00 | 0.25 | 0.00 | 98 | 1005.9 |
| 20260509101516 | 11 | 248 | 12.9 | 19.3 | 0.00 | 0.25 | 0.00 | 98 | 1005.8 |
| 20260509101004 | 11 | 242 | 14.5 | 19.3 | 0.00 | 0.25 | 0.00 | 98 | 1005.8 |
| 20260509100506 | 11 | 243 | 12.9 | 19.3 | 0.00 | 0.25 | 0.00 | 98 | 1005.8 |
| 20260509100022 | 11 | 239 | 11.3 | 19.3 | 0.00 | 0.25 | 0.00 | 98 | 1005.9 |
| 20260509095507 | 11 | 231 | 14.5 | 17.7 | 0.00 | 0.25 | 0.00 | 98 | 1005.9 |
| 20260509095010 | 11 | 246 | 12.9 | 17.7 | 0.00 | 0.25 | 0.00 | 98 | 1005.9 |
| 20260509094524 | 11 | 239 | 12.9 | 17.7 | 0.00 | 0.25 | 0.00 | 98 | 1006.0 |
| 20260509094009 | 11 | 244 | 12.9 | 16.1 | 0.00 | 0.25 | 0.00 | 98 | 1006.0 |
| 20260509093508 | 11 | 245 | 11.3 | 17.7 | 0.00 | 0.25 | 0.00 | 98 | 1006.0 |
| 20260509093006 | 11 | 236 | 12.9 | 17.7 | 0.00 | 0.25 | 0.00 | 98 | 1006.1 |
| 20260509092507 | 11 | 239 | 12.9 | 17.7 | 0.00 | 0.25 | 0.00 | 97 | 1006.0 |
| 20260509092003 | 11 | 234 | 14.5 | 17.7 | 0.00 | 0.25 | 0.00 | 97 | 1005.9 |
| 20260509091512 | 11 | 243 | 12.9 | 19.3 | 0.00 | 0.25 | 0.00 | 97 | 1006.0 |
| 20260509091003 | 11 | 244 | 12.9 | 19.3 | 0.00 | 0.25 | 0.00 | 97 | 1005.9 |
| 20260509090507 | 11 | 249 | 14.5 | 19.3 | 0.00 | 0.25 | 0.00 | 97 | 1005.9 |
| 20260509090018 | 11 | 235 | 14.5 | 19.3 | 0.00 | 0.25 | 0.00 | 97 | 1005.9 |
| 20260509085503 | 11 | 238 | 14.5 | 19.3 | 0.00 | 0.25 | 0.00 | 97 | 1006.0 |
| 20260509085003 | 11 | 234 | 14.5 | 19.3 | 0.00 | 0.25 | 0.00 | 97 | 1006.1 |
| 20260509084533 | 11 | 226 | 9.7 | 12.9 | 0.00 | 0.25 | 0.00 | 97 | 1006.2 |
| 20260509084011 | 10 | 242 | 9.7 | 12.9 | 0.00 | 0.25 | 0.00 | 97 | 1006.1 |
| 20260509083507 | 10 | 236 | 9.7 | 14.5 | 0.00 | 0.25 | 0.00 | 97 | 1006.1 |
| 20260509083033 | 10 | 226 | 9.7 | 16.1 | 0.00 | 0.25 | 0.00 | 97 | 1006.1 |
| 20260509082511 | 11 | 227 | 9.7 | 16.1 | 0.00 | 0.25 | 0.00 | 97 | 1006.1 |
| 20260509082010 | 11 | 232 | 11.3 | 16.1 | 0.00 | 0.25 | 0.00 | 97 | 1006.1 |
| 20260509081528 | 11 | 230 | 9.7 | 16.1 | 0.00 | 0.25 | 0.00 | 97 | 1006.2 |
| 20260509081004 | 11 | 226 | 11.3 | 16.1 | 0.00 | 0.25 | 0.00 | 97 | 1006.2 |
| 20260509080503 | 11 | 236 | 11.3 | 16.1 | 0.00 | 0.25 | 0.00 | 97 | 1006.3 |
| 20260509080012 | 11 | 223 | 11.3 | 16.1 | 0.00 | 0.25 | 0.00 | 97 | 1006.2 |
| 20260509075504 | 11 | 223 | 11.3 | 16.1 | 0.00 | 0.25 | 0.00 | 97 | 1006.2 |
| 20260509075004 | 11 | 222 | 12.9 | 17.7 | 0.00 | 0.25 | 0.00 | 97 | 1006.2 |
| 20260509074516 | 11 | 227 | 12.9 | 17.7 | 0.00 | 0.25 | 0.00 | 97 | 1006.2 |
| 20260509074004 | 10 | 233 | 14.5 | 19.3 | 0.00 | 0.25 | 0.00 | 97 | 1006.2 |
| 20260509073507 | 10 | 223 | 12.9 | 19.3 | 0.00 | 0.25 | 0.00 | 97 | 1006.0 |
| 20260509073023 | 10 | 226 | 12.9 | 17.7 | 0.00 | 0.25 | 0.00 | 96 | 1006.2 |
| 20260509072508 | 10 | 231 | 14.5 | 19.3 | 0.00 | 0.25 | 0.00 | 96 | 1006.2 |
| 20260509072010 | 10 | 228 | 14.5 | 19.3 | 0.00 | 0.25 | 0.00 | 96 | 1006.2 |
| 20260509071522 | 10 | 207 | 14.5 | 19.3 | 0.00 | 0.25 | 0.00 | 96 | 1006.1 |
| 20260509071010 | 10 | 208 | 14.5 | 19.3 | 0.00 | 0.25 | 0.00 | 96 | 1006.0 |
| 20260509070026 | 10 | 212 | 14.5 | 19.3 | 0.00 | 0.25 | 0.00 | 95 | 1006.1 |
| 20260509065505 | 10 | 206 | 14.5 | 19.3 | 0.00 | 0.25 | 0.00 | 95 | 1006.2 |
| 20260509065003 | 10 | 210 | 12.9 | 19.3 | 0.00 | 0.25 | 0.00 | 95 | 1006.2 |
| 20260509064521 | 11 | 203 | 12.9 | 17.7 | 0.00 | 0.25 | 0.00 | 95 | 1006.4 |
| 20260509064006 | 10 | 224 | 12.9 | 16.1 | 0.00 | 0.25 | 0.00 | 95 | 1006.4 |
| 20260509063508 | 11 | 219 | 8.0 | 12.9 | 0.00 | 0.25 | 0.00 | 95 | 1006.4 |
| 20260509063017 | 11 | 242 | 8.0 | 11.3 | 0.00 | 0.25 | 0.00 | 95 | 1006.5 |
| 20260509062509 | 11 | 250 | 9.7 | 11.3 | 0.00 | 0.25 | 0.00 | 95 | 1006.5 |
| 20260509062009 | 11 | 250 | 8.0 | 11.3 | 0.00 | 0.25 | 0.00 | 95 | 1006.5 |
| 20260509061524 | 11 | 252 | 9.7 | 11.3 | 0.00 | 0.25 | 0.00 | 94 | 1006.4 |
| 20260509061007 | 11 | 245 | 9.7 | 11.3 | 0.00 | 0.25 | 0.00 | 94 | 1006.4 |
| 20260509060508 | 11 | 250 | 9.7 | 12.9 | 0.00 | 0.25 | 0.00 | 95 | 1006.5 |
| 20260509060025 | 11 | 248 | 9.7 | 14.5 | 0.00 | 0.25 | 0.00 | 94 | 1006.5 |
| 20260509055510 | 11 | 248 | 9.7 | 14.5 | 0.00 | 0.25 | 0.00 | 94 | 1006.6 |
| 20260509055008 | 11 | 248 | 9.7 | 12.9 | 0.00 | 0.25 | 0.00 | 94 | 1006.7 |
| 20260509054526 | 11 | 245 | 9.7 | 12.9 | 0.00 | 0.25 | 0.00 | 94 | 1006.7 |
| 20260509054005 | 11 | 240 | 8.0 | 12.9 | 0.00 | 0.25 | 0.00 | 93 | 1006.8 |
| 20260509053507 | 11 | 255 | 9.7 | 12.9 | 0.00 | 0.25 | 0.00 | 93 | 1006.9 |
| 20260509053016 | 11 | 248 | 11.3 | 14.5 | 0.00 | 0.25 | 0.00 | 93 | 1006.8 |
| 20260509052505 | 11 | 254 | 11.3 | 14.5 | 0.00 | 0.25 | 0.00 | 94 | 1006.9 |
| 20260509052008 | 11 | 240 | 11.3 | 14.5 | 0.00 | 0.25 | 0.00 | 94 | 1006.8 |
| 20260509051519 | 11 | 256 | 11.3 | 12.9 | 0.00 | 0.25 | 0.00 | 93 | 1006.9 |
| 20260509051007 | 11 | 252 | 9.7 | 11.3 | 0.00 | 0.25 | 0.00 | 93 | 1006.9 |
| 20260509050509 | 11 | 251 | 9.7 | 12.9 | 0.00 | 0.25 | 0.00 | 93 | 1007.0 |
| 20260509050035 | 11 | 255 | 9.7 | 12.9 | 0.00 | 0.25 | 0.00 | 93 | 1007.0 |
| 20260509045508 | 11 | 250 | 9.7 | 12.9 | 0.00 | 0.25 | 0.25 | 93 | 1007.0 |
| 20260509045011 | 11 | 243 | 9.7 | 12.9 | 0.00 | 0.25 | 0.25 | 93 | 1007.0 |
| 20260509044527 | 11 | 240 | 9.7 | 11.3 | 0.00 | 0.25 | 0.25 | 92 | 1007.1 |
| 20260509044012 | 11 | 272 | 8.0 | 12.9 | 0.00 | 0.25 | 0.25 | 92 | 1007.1 |
| 20260509043507 | 11 | 245 | 9.7 | 12.9 | 0.00 | 0.25 | 0.25 | 92 | 1007.0 |
| 20260509043032 | 11 | 257 | 9.7 | 14.5 | 0.00 | 0.25 | 0.25 | 92 | 1007.0 |
| 20260509042004 | 11 | 238 | 11.3 | 17.7 | 0.00 | 0.25 | 0.25 | 92 | 1006.9 |
| 20260509041004 | 11 | 221 | 11.3 | 16.1 | 0.00 | 0.28 | 0.25 | 93 | 1007.0 |
| 20260509040503 | 11 | 231 | 9.7 | 16.1 | 0.00 | 0.30 | 0.25 | 92 | 1007.0 |
| 20260509040010 | 11 | 239 | 11.3 | 12.9 | 0.00 | 0.30 | 0.25 | 92 | 1007.2 |
| 20260509035504 | 11 | 233 | 9.7 | 16.1 | 0.00 | 0.30 | 0.25 | 92 | 1007.3 |
| 20260509034510 | 12 | 225 | 11.3 | 16.1 | 0.00 | 0.30 | 0.25 | 92 | 1007.5 |
| 20260509033504 | 12 | 244 | 9.7 | 16.1 | 0.00 | 0.30 | 0.25 | 92 | 1007.6 |
| 20260509033007 | 12 | 227 | 11.3 | 16.1 | 0.00 | 0.30 | 0.25 | 92 | 1007.6 |
| 20260509032005 | 12 | 249 | 11.3 | 16.1 | 0.00 | 0.30 | 0.25 | 92 | 1007.6 |
| 20260509031004 | 12 | 245 | 11.3 | 16.1 | 0.00 | 0.30 | 0.25 | 92 | 1007.6 |
| 20260509030504 | 12 | 247 | 11.3 | 16.1 | 0.00 | 0.30 | 0.25 | 92 | 1007.7 |
| 20260509030014 | 12 | 243 | 11.3 | 17.7 | 0.00 | 0.30 | 0.25 | 91 | 1007.7 |
| 20260509025503 | 12 | 240 | 11.3 | 17.7 | 0.00 | 0.30 | 0.25 | 91 | 1007.6 |
| 20260509025004 | 12 | 233 | 11.3 | 16.1 | 0.00 | 0.30 | 0.25 | 91 | 1007.6 |
| 20260509024511 | 12 | 243 | 12.9 | 17.7 | 0.00 | 0.30 | 0.25 | 91 | 1007.6 |
| 20260509024004 | 12 | 238 | 11.3 | 17.7 | 0.00 | 0.30 | 0.25 | 91 | 1007.6 |
| 20260509023506 | 12 | 221 | 9.7 | 14.5 | 0.00 | 0.30 | 0.25 | 91 | 1007.5 |
| 20260509023016 | 12 | 238 | 11.3 | 14.5 | 0.00 | 0.30 | 0.25 | 91 | 1007.5 |
| 20260509021510 | 12 | 237 | 11.3 | 16.1 | 0.00 | 0.30 | 0.25 | 90 | 1007.7 |
| 20260509021004 | 12 | 236 | 11.3 | 16.1 | 0.00 | 0.30 | 0.25 | 90 | 1007.6 |
| 20260509015504 | 12 | 240 | 9.7 | 14.5 | 0.00 | 0.30 | 0.25 | 90 | 1007.6 |
| 20260509015005 | 12 | 241 | 9.7 | 12.9 | 0.00 | 0.30 | 0.25 | 90 | 1007.5 |
| 20260509014510 | 12 | 239 | 8.0 | 11.3 | 0.00 | 0.30 | 0.25 | 90 | 1007.5 |
| 20260509014004 | 12 | 236 | 8.0 | 11.3 | 0.00 | 0.30 | 0.25 | 90 | 1007.5 |
| 20260509013504 | 12 | 249 | 6.4 | 9.7 | 0.00 | 0.30 | 0.25 | 90 | 1007.5 |
| 20260509013013 | 12 | 248 | 6.4 | 9.7 | 0.00 | 0.30 | 0.25 | 89 | 1007.5 |
| 20260509012503 | 12 | 256 | 6.4 | 9.7 | 0.00 | 0.30 | 0.25 | 89 | 1007.5 |
| 20260509012005 | 12 | 258 | 8.0 | 9.7 | 0.00 | 0.30 | 0.25 | 89 | 1007.4 |
| 20260509011508 | 12 | 250 | 8.0 | 9.7 | 0.00 | 0.30 | 0.25 | 88 | 1007.3 |
| 20260509010504 | 12 | 243 | 6.4 | 9.7 | 0.00 | 0.30 | 0.25 | 88 | 1007.2 |
| 20260509005504 | 13 | 254 | 8.0 | 12.9 | 0.00 | 0.30 | 0.25 | 87 | 1007.0 |
| 20260509005003 | 13 | 244 | 9.7 | 16.1 | 0.00 | 0.30 | 0.25 | 86 | 1007.0 |
| 20260509004524 | 13 | 240 | 11.3 | 16.1 | 0.00 | 0.30 | 0.25 | 86 | 1007.0 |
| 20260509004004 | 13 | 255 | 11.3 | 17.7 | 0.00 | 0.30 | 0.25 | 86 | 1007.0 |
| 20260509003504 | 13 | 249 | 12.9 | 17.7 | 0.00 | 0.30 | 0.25 | 86 | 1007.0 |
| 20260509003012 | 13 | 245 | 12.9 | 20.9 | 0.00 | 0.30 | 0.25 | 86 | 1007.0 |
| 20260509002507 | 13 | 250 | 14.5 | 20.9 | 0.00 | 0.30 | 0.25 | 86 | 1007.2 |
| 20260509002003 | 13 | 239 | 14.5 | 22.5 | 0.00 | 0.30 | 0.25 | 86 | 1007.2 |
| 20260509001512 | 13 | 243 | 16.1 | 25.7 | 0.00 | 0.30 | 0.25 | 85 | 1007.3 |
| 20260509001006 | 13 | 241 | 17.7 | 25.7 | 0.00 | 0.30 | 0.25 | 85 | 1007.2 |
| 20260509000503 | 14 | 236 | 19.3 | 25.7 | 0.00 | 0.30 | 0.25 | 85 | 1007.3 |
| 20260509000011 | 14 | 246 | 17.7 | 24.1 | 0.00 | 0.30 | 0.25 | 84 | 1007.3 |
| 20260508235503 | 14 | 248 | 19.3 | 24.1 | 0.00 | 0.30 | 0.25 | 84 | 1007.3 |
| 20260508234512 | 14 | 245 | 16.1 | 22.5 | 0.00 | 0.30 | 0.25 | 84 | 1007.5 |
| 20260508233506 | 15 | 241 | 17.7 | 24.1 | 0.00 | 0.30 | 0.25 | 84 | 1007.4 |
| 20260508232505 | 15 | 244 | 19.3 | 27.4 | 0.00 | 0.30 | 0.25 | 82 | 1007.6 |
| 20260508232008 | 15 | 225 | 22.5 | 27.4 | 0.00 | 0.30 | 0.25 | 80 | 1007.6 |
| 20260508231516 | 15 | 223 | 19.3 | 30.6 | 0.00 | 0.30 | 0.25 | 81 | 1007.6 |
| 20260508231005 | 15 | 225 | 22.5 | 30.6 | 0.00 | 0.30 | 0.25 | 79 | 1007.6 |
| 20260508230503 | 15 | 231 | 22.5 | 30.6 | 0.00 | 0.30 | 0.25 | 79 | 1007.5 |
| 20260508230015 | 15 | 246 | 22.5 | 27.4 | 0.00 | 0.30 | 0.25 | 78 | 1007.5 |
| 20260508225503 | 15 | 237 | 19.3 | 29.0 | 0.00 | 0.30 | 0.25 | 77 | 1007.6 |
| 20260508225004 | 15 | 233 | 22.5 | 29.0 | 0.00 | 0.30 | 0.25 | 76 | 1007.6 |
| 20260508224510 | 16 | 234 | 17.7 | 22.5 | 0.00 | 0.30 | 0.25 | 76 | 1007.6 |
| 20260508223504 | 16 | 240 | 16.1 | 22.5 | 0.00 | 0.30 | 0.25 | 77 | 1007.7 |
| 20260508223015 | 16 | 245 | 16.1 | 20.9 | 0.00 | 0.30 | 0.25 | 77 | 1007.7 |
| 20260508222505 | 16 | 248 | 14.5 | 20.9 | 0.00 | 0.30 | 0.25 | 78 | 1007.7 |
| 20260508222008 | 16 | 241 | 16.1 | 20.9 | 0.00 | 0.30 | 0.25 | 77 | 1007.8 |
| 20260508221515 | 15 | 245 | 14.5 | 20.9 | 0.00 | 0.30 | 0.25 | 77 | 1007.8 |
| 20260508221004 | 15 | 243 | 12.9 | 20.9 | 0.00 | 0.30 | 0.25 | 79 | 1007.8 |
| 20260508220504 | 15 | 236 | 16.1 | 22.5 | 0.00 | 0.30 | 0.25 | 78 | 1007.9 |
| 20260508220016 | 15 | 258 | 17.7 | 22.5 | 0.00 | 0.30 | 0.25 | 74 | 1008.0 |
| 20260508215504 | 15 | 247 | 14.5 | 19.3 | 0.00 | 0.30 | 0.25 | 76 | 1008.0 |
| 20260508215007 | 15 | 252 | 14.5 | 20.9 | 0.00 | 0.30 | 0.25 | 75 | 1008.0 |
| 20260508214516 | 15 | 258 | 14.5 | 20.9 | 0.00 | 0.30 | 0.25 | 74 | 1008.0 |
| 20260508214006 | 15 | 254 | 14.5 | 20.9 | 0.00 | 0.30 | 0.25 | 75 | 1008.0 |
| 20260508213506 | 15 | 252 | 14.5 | 20.9 | 0.00 | 0.30 | 0.25 | 75 | 1007.9 |
| 20260508213022 | 15 | 244 | 16.1 | 22.5 | 0.00 | 0.30 | 0.25 | 75 | 1007.9 |
| 20260508212504 | 15 | 248 | 17.7 | 22.5 | 0.00 | 0.30 | 0.25 | 73 | 1007.8 |
| 20260508212005 | 15 | 266 | 16.1 | 22.5 | 0.00 | 0.30 | 0.25 | 73 | 1007.9 |
| 20260508211518 | 15 | 270 | 17.7 | 24.1 | 0.00 | 0.30 | 0.25 | 74 | 1008.0 |
| 20260508211004 | 15 | 255 | 17.7 | 24.1 | 0.00 | 0.30 | 0.25 | 74 | 1007.9 |
| 20260508210505 | 15 | 260 | 17.7 | 24.1 | 0.00 | 0.30 | 0.25 | 78 | 1007.9 |
| 20260508210018 | 15 | 250 | 16.1 | 24.1 | 0.00 | 0.30 | 0.25 | 76 | 1007.9 |
| 20260508205506 | 15 | 260 | 19.3 | 24.1 | 0.00 | 0.30 | 0.25 | 74 | 1007.8 |
| 20260508205010 | 15 | 252 | 17.7 | 22.5 | 0.00 | 0.30 | 0.25 | 76 | 1007.9 |
| 20260508204520 | 15 | 250 | 17.7 | 22.5 | 0.00 | 0.30 | 0.25 | 75 | 1007.9 |
| 20260508204005 | 15 | 253 | 16.1 | 20.9 | 0.00 | 0.30 | 0.25 | 76 | 1008.0 |
| 20260508203504 | 15 | 259 | 16.1 | 20.9 | 0.00 | 0.30 | 0.25 | 75 | 1007.9 |
| 20260508203019 | 15 | 244 | 16.1 | 20.9 | 0.00 | 0.30 | 0.25 | 75 | 1008.0 |
| 20260508202505 | 15 | 237 | 17.7 | 20.9 | 0.00 | 0.30 | 0.25 | 73 | 1007.9 |
| 20260508202005 | 15 | 238 | 16.1 | 19.3 | 0.00 | 0.30 | 0.25 | 74 | 1007.9 |
| 20260508201524 | 15 | 255 | 14.5 | 20.9 | 0.00 | 0.30 | 0.25 | 79 | 1008.0 |
| 20260508201009 | 15 | 255 | 17.7 | 20.9 | 0.00 | 0.30 | 0.25 | 75 | 1008.2 |
| 20260508200504 | 15 | 240 | 14.5 | 20.9 | 0.00 | 0.30 | 0.25 | 72 | 1008.2 |
| 20260508200022 | 15 | 225 | 14.5 | 20.9 | 0.00 | 0.30 | 0.25 | 76 | 1007.9 |
| 20260508195504 | 15 | 226 | 17.7 | 20.9 | 0.00 | 0.30 | 0.25 | 76 | 1008.1 |
| 20260508195005 | 15 | 236 | 16.1 | 20.9 | 0.00 | 0.30 | 0.25 | 78 | 1008.3 |
| 20260508194526 | 15 | 221 | 14.5 | 22.5 | 0.00 | 0.30 | 0.25 | 81 | 1008.3 |
| 20260508194006 | 15 | 238 | 14.5 | 22.5 | 0.00 | 0.33 | 0.25 | 79 | 1008.3 |
| 20260508193505 | 15 | 241 | 16.1 | 20.9 | 0.00 | 0.33 | 0.25 | 79 | 1008.5 |
| 20260508193021 | 15 | 234 | 16.1 | 20.9 | 0.00 | 0.36 | 0.25 | 79 | 1008.6 |
| 20260508192505 | 15 | 246 | 17.7 | 22.5 | 0.00 | 0.36 | 0.25 | 78 | 1008.8 |
| 20260508192003 | 15 | 252 | 17.7 | 22.5 | 0.00 | 0.36 | 0.25 | 76 | 1008.7 |
| 20260508191516 | 15 | 255 | 17.7 | 22.5 | 0.00 | 0.36 | 0.25 | 76 | 1009.0 |
| 20260508191007 | 15 | 253 | 17.7 | 22.5 | 0.00 | 0.36 | 0.25 | 78 | 1009.1 |
| 20260508190505 | 16 | 245 | 17.7 | 25.7 | 0.00 | 0.36 | 0.25 | 78 | 1009.1 |
| 20260508190017 | 16 | 251 | 17.7 | 25.7 | 0.00 | 0.36 | 0.25 | 77 | 1008.9 |